| time (UTC) | temp C | wind direction | speed KPH | gust KPH | rain 1hr cm | rain 24hr cm | rain mn cm | humidity % | barometer mb |
| 20260508191539 | 12 | 39 | 11.3 | 22.5 | 0.00 | 1.68 | 0.00 | 70 | 1001.6 |
| 20260508190036 | 12 | 60 | 9.7 | 20.9 | 0.00 | 1.68 | 0.00 | 70 | 1001.5 |
| 20260508184536 | 11 | 88 | 9.7 | 20.9 | 0.00 | 2.26 | 0.00 | 78 | 1001.4 |
| 20260508183032 | 11 | 55 | 9.7 | 20.9 | 0.00 | 2.26 | 0.00 | 74 | 1001.4 |
| 20260508181601 | 11 | 55 | 11.3 | 20.9 | 0.00 | 2.26 | 0.00 | 77 | 1001.7 |
| 20260508180043 | 11 | 86 | 14.5 | 24.1 | 0.00 | 2.26 | 0.00 | 78 | 1001.6 |
| 20260508174543 | 11 | 109 | 12.9 | 24.1 | 0.00 | 2.26 | 0.00 | 76 | 1001.6 |
| 20260508173041 | 11 | 80 | 12.9 | 20.9 | 0.00 | 2.26 | 0.00 | 76 | 1001.4 |
| 20260508171537 | 11 | 62 | 11.3 | 20.9 | 0.00 | 2.26 | 0.00 | 78 | 1001.8 |
| 20260508170038 | 11 | 83 | 11.3 | 19.3 | 0.00 | 2.26 | 0.00 | 78 | 1001.9 |
| 20260508164535 | 10 | 66 | 11.3 | 17.7 | 0.00 | 2.26 | 0.00 | 80 | 1001.8 |
| 20260508163041 | 10 | 87 | 4.8 | 16.1 | 0.00 | 2.26 | 0.00 | 81 | 1001.6 |
| 20260508161536 | 9 | 57 | 8.0 | 17.7 | 0.00 | 2.26 | 0.00 | 82 | 1001.5 |
| 20260508160036 | 9 | 55 | 9.7 | 19.3 | 0.00 | 2.26 | 0.00 | 80 | 1001.7 |
| 20260508154535 | 10 | 84 | 12.9 | 17.7 | 0.00 | 2.26 | 0.00 | 80 | 1001.6 |
| 20260508153044 | 10 | 100 | 12.9 | 19.3 | 0.00 | 2.26 | 0.00 | 83 | 1001.7 |
| 20260508151535 | 10 | 80 | 11.3 | 19.3 | 0.00 | 2.26 | 0.00 | 81 | 1001.6 |
| 20260508150031 | 11 | 90 | 4.8 | 16.1 | 0.00 | 2.26 | 0.00 | 76 | 1001.7 |
| 20260508144534 | 11 | 94 | 6.4 | 17.7 | 0.00 | 2.26 | 0.00 | 77 | 1002.0 |
| 20260508143039 | 11 | 100 | 1.6 | 16.1 | 0.00 | 2.26 | 0.00 | 82 | 1001.8 |
| 20260508141535 | 10 | 71 | 9.7 | 20.9 | 0.00 | 2.26 | 0.00 | 82 | 1002.0 |
| 20260508140036 | 10 | 80 | 12.9 | 20.9 | 0.00 | 2.26 | 0.00 | 84 | 1002.2 |
| 20260508134531 | 10 | 76 | 11.3 | 19.3 | 0.00 | 2.26 | 0.00 | 83 | 1002.3 |
| 20260508133054 | 10 | 89 | 9.7 | 17.7 | 0.00 | 2.26 | 0.00 | 84 | 1002.7 |
| 20260508131534 | 10 | 90 | 9.7 | 17.7 | 0.00 | 2.26 | 0.00 | 86 | 1002.6 |
| 20260508130035 | 10 | 86 | 9.7 | 14.5 | 0.00 | 2.26 | 0.00 | 88 | 1002.3 |
| 20260508124539 | 9 | 77 | 8.0 | 14.5 | 0.00 | 2.29 | 0.00 | 89 | 1002.1 |
| 20260508123052 | 8 | 46 | 4.8 | 16.1 | 0.00 | 2.29 | 0.00 | 88 | 1002.3 |
| 20260508121549 | 8 | 85 | 6.4 | 14.5 | 0.00 | 2.29 | 0.00 | 88 | 1002.4 |
| 20260508120035 | 8 | 0 | 0.0 | 8.0 | 0.00 | 2.29 | 0.00 | 90 | 1002.4 |
| 20260508114535 | 8 | 42 | 3.2 | 9.7 | 0.00 | 2.29 | 0.00 | 91 | 1002.9 |
| 20260508113034 | 7 | 36 | 0.0 | 8.0 | 0.00 | 2.29 | 0.00 | 93 | 1002.7 |
| 20260508111533 | 6 | 35 | 4.8 | 9.7 | 0.00 | 2.29 | 0.00 | 95 | 1002.6 |
| 20260508110044 | 6 | 23 | 0.0 | 6.4 | 0.00 | 2.29 | 0.00 | 96 | 1002.6 |
| 20260508104536 | 5 | 0 | 0.0 | 0.0 | 0.00 | 2.29 | 0.00 | 96 | 1002.9 |
| 20260508103036 | 5 | 0 | 0.0 | 0.0 | 0.00 | 2.29 | 0.00 | 97 | 1003.1 |
| 20260508101535 | 5 | 0 | 0.0 | 0.0 | 0.00 | 2.29 | 0.00 | 97 | 1002.9 |
| 20260508100034 | 5 | 0 | 0.0 | 0.0 | 0.00 | 2.29 | 0.00 | 96 | 1002.8 |
| 20260508094545 | 5 | 0 | 0.0 | 4.8 | 0.00 | 2.29 | 0.00 | 97 | 1002.4 |
| 20260508093035 | 5 | 0 | 0.0 | 0.0 | 0.00 | 2.29 | 0.00 | 97 | 1002.5 |
| 20260508091535 | 5 | 0 | 0.0 | 0.0 | 0.00 | 2.29 | 0.00 | 97 | 1002.4 |
| 20260508090036 | 5 | 0 | 0.0 | 4.8 | 0.00 | 2.29 | 0.00 | 97 | 1002.5 |
| 20260508084534 | 5 | 42 | 0.0 | 4.8 | 0.00 | 2.41 | 0.00 | 97 | 1002.4 |
| 20260508083032 | 5 | 41 | 1.6 | 8.0 | 0.00 | 2.41 | 0.00 | 96 | 1002.1 |
| 20260508081534 | 5 | 61 | 0.0 | 6.4 | 0.00 | 2.41 | 0.00 | 96 | 1001.8 |
| 20260508080038 | 5 | 0 | 3.2 | 14.5 | 0.00 | 2.41 | 0.00 | 96 | 1001.9 |
| 20260508074537 | 5 | 57 | 6.4 | 14.5 | 0.00 | 2.49 | 0.00 | 96 | 1002.1 |
| 20260508073036 | 5 | 61 | 4.8 | 12.9 | 0.00 | 2.49 | 0.00 | 96 | 1002.1 |
| 20260508071536 | 5 | 100 | 8.0 | 14.5 | 0.00 | 2.49 | 0.00 | 96 | 1002.0 |
| 20260508070035 | 6 | 56 | 6.4 | 19.3 | 0.00 | 2.49 | 0.00 | 96 | 1001.9 |
| 20260508064539 | 7 | 68 | 9.7 | 20.9 | 0.00 | 2.49 | 0.00 | 96 | 1001.9 |
| 20260508063035 | 7 | 69 | 4.8 | 14.5 | 0.00 | 2.49 | 0.00 | 96 | 1001.8 |
| 20260508061537 | 8 | 40 | 3.2 | 14.5 | 0.00 | 2.49 | 0.00 | 96 | 1002.1 |
| 20260508060035 | 8 | 0 | 3.2 | 14.5 | 0.00 | 2.49 | 0.00 | 96 | 1001.7 |
| 20260508054543 | 8 | 34 | 1.6 | 6.4 | 0.00 | 2.49 | 0.00 | 96 | 1001.6 |
| 20260508053032 | 8 | 21 | 1.6 | 6.4 | 0.00 | 2.49 | 0.00 | 96 | 1001.7 |
| 20260508051539 | 8 | 0 | 0.0 | 0.0 | 0.00 | 2.49 | 0.00 | 96 | 1001.3 |
| 20260508050036 | 9 | 0 | 0.0 | 0.0 | 0.00 | 2.49 | 0.00 | 96 | 1001.3 |
| 20260508044534 | 9 | 0 | 0.0 | 0.0 | 0.00 | 2.49 | 0.00 | 96 | 1001.5 |
| 20260508043038 | 9 | 0 | 0.0 | 0.0 | 0.00 | 2.49 | 0.00 | 96 | 1001.6 |
| 20260508041535 | 9 | 0 | 0.0 | 0.0 | 0.00 | 2.49 | 0.00 | 96 | 1001.7 |
| 20260508040037 | 9 | 0 | 0.0 | 1.6 | 0.00 | 2.49 | 0.00 | 97 | 1001.7 |
| 20260508034543 | 9 | 0 | 0.0 | 0.0 | 0.00 | 2.49 | 0.00 | 97 | 1002.0 |
| 20260508033032 | 9 | 0 | 0.0 | 6.4 | 0.00 | 2.49 | 0.00 | 97 | 1002.1 |
| 20260508031533 | 9 | 276 | 0.0 | 6.4 | 0.00 | 2.49 | 0.00 | 96 | 1002.0 |
| 20260508030043 | 9 | 275 | 3.2 | 12.9 | 0.00 | 2.49 | 0.00 | 97 | 1002.3 |
| 20260508024543 | 9 | 302 | 0.0 | 4.8 | 0.00 | 2.49 | 2.49 | 97 | 1001.9 |
| 20260508023036 | 9 | 0 | 0.0 | 0.0 | 0.00 | 2.49 | 2.49 | 97 | 1001.8 |
| 20260508021532 | 9 | 0 | 0.0 | 4.8 | 0.00 | 2.49 | 2.49 | 96 | 1001.8 |
| 20260508020031 | 9 | 234 | 0.0 | 6.4 | 0.00 | 2.49 | 2.49 | 96 | 1001.8 |
| 20260508014538 | 9 | 202 | 0.0 | 8.0 | 0.00 | 2.49 | 2.49 | 96 | 1002.0 |
| 20260508013037 | 10 | 179 | 1.6 | 8.0 | 0.00 | 2.49 | 2.49 | 96 | 1001.8 |
| 20260508011542 | 10 | 203 | 3.2 | 9.7 | 0.00 | 2.49 | 2.49 | 96 | 1001.6 |
| 20260508010035 | 10 | 213 | 4.8 | 17.7 | 0.00 | 2.49 | 2.49 | 96 | 1002.0 |
| 20260508004532 | 10 | 198 | 3.2 | 9.7 | 0.00 | 2.49 | 2.49 | 96 | 1002.0 |
| 20260508003038 | 10 | 209 | 3.2 | 8.0 | 0.00 | 2.49 | 2.49 | 96 | 1001.9 |
| 20260508001536 | 10 | 204 | 3.2 | 11.3 | 0.00 | 2.49 | 2.49 | 96 | 1002.1 |
| 20260508000035 | 10 | 176 | 6.4 | 12.9 | 0.00 | 2.49 | 2.49 | 96 | 1002.5 |
| 20260507234534 | 10 | 213 | 3.2 | 8.0 | 0.00 | 2.49 | 2.49 | 96 | 1002.3 |
| 20260507233037 | 10 | 159 | 6.4 | 9.7 | 0.00 | 2.49 | 2.49 | 95 | 1002.4 |
| 20260507231546 | 10 | 219 | 3.2 | 16.1 | 0.00 | 2.49 | 2.49 | 95 | 1002.5 |
| 20260507230032 | 10 | 190 | 3.2 | 11.3 | 0.00 | 2.49 | 2.49 | 95 | 1002.5 |
| 20260507224537 | 10 | 199 | 4.8 | 11.3 | 0.00 | 2.49 | 2.49 | 95 | 1002.5 |
| 20260507223038 | 10 | 190 | 4.8 | 12.9 | 0.00 | 2.49 | 2.49 | 95 | 1002.4 |
| 20260507221537 | 10 | 216 | 8.0 | 24.1 | 0.00 | 2.49 | 2.49 | 94 | 1003.0 |
| 20260507220034 | 10 | 292 | 6.4 | 16.1 | 0.00 | 2.49 | 2.49 | 95 | 1002.7 |
| 20260507214532 | 10 | 197 | 3.2 | 16.1 | 0.05 | 2.49 | 2.49 | 94 | 1002.7 |
| 20260507213040 | 10 | 209 | 9.7 | 29.0 | 0.15 | 2.49 | 2.49 | 94 | 1002.7 |
| 20260507211534 | 10 | 178 | 11.3 | 24.1 | 0.30 | 2.49 | 2.49 | 94 | 1001.9 |
| 20260507210034 | 10 | 124 | 8.0 | 22.5 | 0.53 | 2.49 | 2.49 | 94 | 1002.3 |
| 20260507204540 | 10 | 140 | 8.0 | 17.7 | 0.74 | 2.44 | 2.44 | 94 | 1002.9 |
| 20260507203041 | 10 | 169 | 6.4 | 19.3 | 0.99 | 2.34 | 2.34 | 94 | 1003.8 |
| 20260507201538 | 11 | 167 | 6.4 | 17.7 | 1.17 | 2.16 | 2.16 | 94 | 1003.9 |
| 20260507200045 | 11 | 175 | 6.4 | 19.3 | 1.14 | 1.96 | 1.96 | 94 | 1004.5 |
| 20260507194537 | 11 | 209 | 1.6 | 9.7 | 1.09 | 1.70 | 1.70 | 94 | 1004.9 |
| 20260507193034 | 11 | 216 | 9.7 | 25.7 | 1.02 | 1.32 | 1.32 | 94 | 1004.8 |